SCP
0 0 0 0 0 0 0 0 0 0 0 0 0 1 0 0 1 1 1 1 1 1 1 1 0 0 0 0 0 0 0 0 0 0 0 0 0 0 0 0 0 0 0
0 0 0 0 0 0 0 0 0 0 0 0 0 0 0 0 1 1 1 1 1 1 1 0 0 0 0 0 0 0 0 0 0 0 0 0 0 0 0 0 0 0 0
0 0 0 0 0 0 0 0 0 0 0 0 0 0 0 0 1 1 1 1 1 1 1 1 0 0 0 0 0 0 0 0 0 0 0 0 0 0 0 0 0 0 0
0 0 0 0 0 0 0 0 0 0 0 0 0 0 0 0 0 1 1 1 0 1 1 1 0 0 0 0 0 0 0 0 0 0 0 0 0 0 0 0 0 0 0
0 0 0 0 0 0 0 0 0 0 0 0 0 0 0 0 1 1 1 1 1 1 0 0 0 0 0 0 0 0 0 0 0 0 0 0 0 0 0 0 0 0 0
0 0 0 0 0 0 0 0 0 0 0 0 0 0 0 0 1 1 1 1 1 1 0 0 0 0 0 0 0 0 0 0 0 0 0 0 0 0 0 0 0 0 0
0 0 0 0 0 0 0 0 0 0 0 0 0 0 0 0 0 0 0 1 1 1 0 0 0 0 0 0 0 0 0 0 0 0 0 0 0 0 0 0 0 0 0
0 0 0 0 0 0 0 0 0 0 0 0 0 0 0 0 0 0 0 0 0 0 0 0 0 0 0 0 0 0 0 0 0 0 0 0 0 0 0 0 0 0 0
0 0 0 0 0 0 0 0 0 0 0 0 0 0 0 0 0 0 0 0 0 0 0 0 0 0 0 0 0 0 0 0 0 0 0 0 0 0 0 0 0 0 0
0 0 0 0 0 0 0 0 0 0 0 0 0 0 0 0 0 0 0 1 0 0 0 0 0 0 0 0 0 0 0 0 0 0 0 0 0 0 0 0 0 0 0
0 0 0 0 0 0 0 0 -0 0 0 0 0 0 0 0 0 0 0 0 0 0 0 0 0 0 0 0 0 0 0 0 0 0 0 0 0 0 0 0 0 0 0
0 0 0 0 0 0 0 0 0 0 0 0 0 0 0 0 0 0 0 0 0 0 0 0 0 0 0 0 0 0 0 0 0 0 0 0 0 0 0 0 0 0 0
0 0 0 0 0 0 0 0 0 -0 0 0 0 0 0 0 0 0 -0 0 0 0 0 0 0 0 0 0 0 0 0 0 0 0 0 0 0 0 0 0 0 0 0
0 0 0 0 0 0 0 0 0 0 0 0 0 0 0 0 0 0 0 -0 -0 0 0 0 0 0 0 0 0 0 0 0 0 0 0 0 0 0 0 0 0 0 0
0 0 0 0 0 0 0 0 0 0 0 0 0 0 0 0 0 0 0 0 -0 0 0 0 0 0 0 0 0 0 0 0 0 0 0 0 0 0 0 0 0 0 0
0 0 0 -0 -0 -0 -0 -0 -0 -0 -0 0 0 -0 0 0 0 0 0 0 0 0 0 0 0 0 0 0 0 0 0 0 0 0 0 0 0 0 0 0 0 0 0
0 0 -0 -0 -0 -0 -0 0 0 -0 0 0 0 0 0 0 0 0 0 0 0 0 0 0 0 0 0 0 0 0 0 0 0 0 0 0 0 0 0 0 0 0 0
0 -0 0 0 0 0 0 0 0 0 0 -0 -0 0 0 0 0 0 0 0 0 0 0 0 0 0 0 0 0 0 0 0 0 0 0 0 0 0 0 0 0 0 0
-0 0 0 0 0 0 0 0 0 0 0 -0 0 0 0 0 0 0 0 0 0 0 0 0 0 0 0 0 0 0 0 0 0 0 0 0 0 0 0 0 0 0 0
0 -0 0 0 0 0 0 0 0 0 0 0 0 0 0 0 0 0 0 0 0 0 0 0 0 0 0 0 0 0 0 0 0 0 0 0 0 0 0 0 0 0 0
-0 0 0 0 0 0 0 0 0 0 0 0 0 0 0 0 0 0 0 0 0 0 0 0 0 0 0 0 0 0 0 0 0 0 0 0 0 0 0 0 0 0 0
0 0 0 0 0 0 0 0 0 0 0 0 0 0 0 0 0 0 0 0 0 0 0 0 0 0 0 0 0 0 0 0 0 0 0 0 0 0 0 0 0 0 0
0 -0 -0 0 0 0 0 0 0 0 0 0 0 0 0 0 0 0 0 0 0 0 0 0 0 0 0 0 0 0 0 0 0 0 0 0 0 0 0 0 0 0 0
-0 0 0 0 0 0 0 0 0 0 0 0 0 0 0 0 0 0 0 0 0 0 0 0 0 0 0 0 0 0 0 0 0 0 0 0 0 0 0 0 0 0 0
0 0 0 0 0 0 0 0 0 0 0 0 0 0 0 0 0 0 0 0 0 0 0 0 0 0 0 0 0 0 0 0 0 0 0 0 0 0 0 0 0 0 0
-0 0 0 0 0 0 0 0 0 0 0 0 0 0 0 0 0 0 0 0 0 0 0 0 0 0 0 0 0 0 0 0 0 0 0 0 0 0 0 0 0 0 0
Wind_Speed_500mb
37 29 26 28 35 37 42 53 54 50 52 53 55 56 57 60 60 61 63 58 59 66 70 78 93 72 63 58 54 52 52 43 26 26 32 36 40 38 29 26 19 20 17
33 27 27 28 33 43 49 56 54 50 53 61 59 59 61 59 59 62 65 65 64 69 78 86 92 85 69 60 52 58 56 47 42 38 35 38 44 41 32 25 22 23 14
29 26 29 35 44 47 51 53 54 49 52 61 66 67 65 60 56 60 63 65 68 69 73 93 90 93 78 72 66 62 59 52 46 42 34 40 47 46 38 32 27 28 17
33 35 42 46 48 52 53 55 58 58 59 60 64 68 72 70 67 60 63 64 70 73 72 79 92 105 90 78 69 66 60 55 49 42 37 39 46 46 39 32 31 28 18
43 49 55 59 66 66 64 65 64 65 65 68 69 66 69 70 67 65 64 70 73 75 76 78 90 85 91 77 70 65 59 60 50 48 40 43 44 48 44 35 27 23 21
60 66 71 75 76 75 73 71 73 72 71 71 72 68 67 73 68 62 70 74 75 74 80 81 80 80 83 73 61 57 52 59 50 51 42 46 47 47 39 32 29 24 18
77 82 84 86 86 83 78 74 75 75 78 78 79 71 70 75 76 61 70 73 75 78 84 83 77 92 86 71 59 56 49 39 33 34 39 48 45 44 38 39 33 24 19
70 71 76 77 78 75 71 72 75 76 82 86 81 75 70 75 74 69 63 67 73 83 85 81 79 89 85 74 70 62 54 46 38 31 24 31 33 31 28 28 30 30 24
67 64 60 61 62 56 64 71 75 82 85 82 79 75 71 75 73 66 61 63 69 88 88 75 96 100 93 79 69 72 63 58 49 42 37 31 32 28 32 36 33 27 21
62 62 59 54 52 60 66 75 83 87 90 79 80 73 74 73 70 63 61 64 71 89 84 80 90 90 83 77 78 79 71 66 61 56 50 43 35 33 33 29 27 27 22
67 65 61 63 77 82 87 93 92 88 81 77 76 70 70 66 64 65 60 65 78 99 97 93 97 99 97 76 82 75 70 67 63 59 52 45 42 43 43 36 34 24 23
73 70 72 75 72 73 74 81 75 67 70 74 66 64 65 64 62 59 52 62 84 98 87 87 87 83 80 83 79 72 64 62 65 63 55 52 51 49 46 34 35 29 24
80 95 94 72 64 61 66 67 61 59 63 63 59 61 59 58 53 47 35 43 76 103 101 96 95 83 83 82 76 65 63 63 68 64 56 54 51 52 46 40 34 26 26
77 75 71 68 62 67 70 68 60 65 68 61 59 61 61 68 56 48 42 45 61 61 109 91 88 89 84 78 70 63 65 66 65 61 57 55 57 54 48 43 41 36 33
74 77 74 74 73 65 67 70 68 69 71 63 60 59 65 69 75 57 45 50 56 81 108 101 98 97 91 83 75 74 73 70 67 62 63 62 60 58 53 47 42 36 39
70 68 65 63 63 59 62 65 65 70 71 63 63 62 67 73 72 57 34 41 69 104 117 102 103 101 95 93 88 81 75 72 67 66 64 62 57 56 55 46 40 36 39
60 63 60 62 62 59 57 56 57 51 53 58 67 66 66 75 63 60 43 53 75 103 110 118 110 108 103 97 93 86 78 71 74 68 63 58 56 54 56 46 41 38 37
50 53 52 53 52 52 52 51 55 49 41 54 62 59 63 64 63 63 45 62 82 94 107 114 119 111 104 100 90 82 72 76 76 70 61 59 54 60 49 45 42 41 39
49 52 51 48 47 48 43 44 48 43 39 44 48 47 59 51 58 64 58 65 101 107 119 120 109 100 99 95 91 90 88 81 74 69 63 61 53 53 49 43 41 40 40
44 45 47 44 41 37 41 39 34 38 43 42 47 47 50 48 52 72 85 96 108 113 117 116 108 107 102 96 91 91 80 81 75 70 65 59 55 49 46 46 42 44 39
29 34 33 34 34 34 35 35 33 37 38 43 39 43 41 39 58 84 84 102 105 104 103 101 99 91 90 89 88 83 79 82 75 69 60 58 60 50 47 44 43 40 39
19 24 30 36 37 37 36 36 36 38 40 41 39 43 43 37 55 77 81 94 96 96 94 93 91 93 91 87 85 84 78 72 73 72 62 60 58 48 49 49 48 41 45
13 15 22 26 32 38 37 37 40 40 44 41 40 47 47 49 67 76 79 92 94 96 95 92 90 83 76 72 71 72 75 76 72 72 67 64 58 51 55 54 52 46 46
12 16 21 22 26 31 37 40 40 38 39 38 41 45 48 50 55 62 70 78 80 81 81 80 76 71 67 65 65 65 69 69 67 66 62 60 57 57 55 51 51 45 41
10 13 18 22 27 27 31 31 35 32 32 36 50 53 52 51 51 57 63 67 74 80 78 80 73 60 59 64 66 62 58 56 62 63 58 55 57 59 55 53 54 49 41
14 13 21 26 33 27 27 28 29 32 37 47 51 57 58 50 49 54 57 64 73 75 73 70 69 71 67 66 64 60 59 59 55 54 54 53 55 58 55 51 55 51 46
Wind_Direction_500mb
236 246 265 279 291 294 296 300 302 296 279 270 267 267 267 266 263 258 256 253 246 248 245 235 226 231 231 231 239 243 237 232 209 223 222 222 216 213 221 230 245 244 266
234 250 267 278 280 286 292 295 298 293 284 277 274 271 269 268 267 260 254 257 253 246 245 242 234 231 232 233 234 237 234 231 223 229 222 216 210 209 219 223 234 228 227
243 259 265 274 283 291 294 290 290 293 295 283 275 271 271 271 265 260 254 251 255 254 246 241 239 232 232 228 228 228 227 228 224 230 224 211 209 206 212 212 220 226 226
257 259 269 277 286 290 291 289 286 287 293 296 283 271 269 270 267 258 250 248 256 255 253 240 240 236 231 227 226 225 223 222 217 222 217 212 205 205 208 211 211 219 215
274 271 274 279 284 286 284 281 282 282 288 298 293 275 265 265 265 258 249 247 253 258 250 240 243 236 226 226 227 223 217 214 215 214 205 196 194 200 204 200 194 202 214
276 276 280 282 283 286 282 277 273 278 284 295 291 280 266 262 266 261 251 250 257 251 247 239 240 219 222 220 226 229 226 216 217 204 205 196 199 202 195 195 191 187 198
282 281 280 281 281 280 279 275 267 273 283 290 290 281 267 260 264 265 255 248 254 250 246 238 236 223 222 212 213 211 215 219 229 229 224 204 202 202 203 196 197 189 192
280 278 278 278 278 275 270 263 264 274 284 288 287 279 266 258 258 263 267 246 247 250 246 243 240 209 205 198 196 201 202 199 193 188 196 205 196 193 195 198 199 197 205
272 273 275 273 269 261 259 263 271 279 286 285 282 276 265 256 257 261 262 245 242 246 243 245 230 215 194 193 196 196 193 190 180 173 174 177 185 190 193 186 194 182 178
272 272 271 263 259 262 266 271 275 280 283 280 276 270 266 257 255 257 253 242 240 238 235 238 220 196 189 193 196 195 191 187 182 177 183 182 186 178 180 186 189 181 178
272 269 265 265 272 274 275 276 279 278 276 272 271 268 262 256 254 250 245 238 234 234 231 227 209 200 196 201 194 195 196 189 183 184 186 185 177 173 176 185 185 182 176
266 265 270 272 268 266 267 269 270 264 266 265 266 264 253 258 244 245 253 231 235 233 213 207 193 189 193 190 190 194 194 191 184 185 183 178 174 175 181 186 177 183 184
266 268 271 265 260 261 264 262 258 257 255 258 258 255 253 246 231 230 230 221 225 223 214 203 193 192 182 184 189 188 186 189 186 180 177 173 173 178 179 174 164 163 157
270 269 268 260 257 260 262 258 253 252 252 251 252 247 247 228 224 227 225 217 217 235 215 202 195 174 180 180 182 183 188 189 186 178 171 169 176 173 170 167 159 152 147
269 269 264 259 263 263 260 255 254 252 249 250 248 237 237 233 224 227 227 221 225 221 215 186 173 172 175 176 176 179 182 182 182 175 172 170 165 162 163 164 158 147 142
272 270 266 262 260 258 257 258 257 260 257 247 235 238 244 247 228 217 229 234 219 208 186 176 170 175 174 175 175 177 180 179 175 172 166 161 158 159 160 160 154 148 141
268 268 267 264 262 260 256 254 256 257 254 238 232 239 239 246 228 217 242 225 215 203 190 173 172 175 176 177 179 179 174 173 175 168 164 162 161 161 162 159 155 151 145
268 268 268 266 263 259 254 251 252 254 240 236 240 241 234 238 230 218 224 217 193 195 177 173 174 177 176 179 179 173 166 174 173 170 167 165 164 167 165 163 161 158 156
261 264 265 263 262 255 249 248 253 242 234 247 249 241 221 230 233 220 216 201 177 171 174 175 175 176 180 183 180 178 178 173 172 171 171 172 170 170 170 169 168 165 165
260 254 250 252 263 249 237 235 236 232 244 242 241 213 208 220 214 197 185 177 174 174 174 172 172 181 182 183 180 181 175 175 174 175 177 177 176 176 175 173 173 175 172
268 251 247 246 242 231 226 226 227 245 236 245 234 214 207 206 191 179 180 177 179 177 175 174 177 183 184 183 183 177 177 178 180 180 180 181 183 178 179 179 177 176 174
288 249 230 229 223 220 224 223 233 236 231 234 226 200 197 191 179 180 184 184 181 179 178 180 181 183 185 182 182 181 179 177 180 183 182 180 180 176 179 179 179 175 178
265 222 202 216 221 220 222 224 221 218 223 229 211 184 181 176 179 184 185 186 185 183 180 179 181 184 184 184 183 184 185 184 185 186 185 183 179 177 180 181 182 182 178
212 189 208 217 220 216 215 216 218 213 211 208 188 184 178 179 179 185 190 190 185 181 180 178 176 179 181 182 181 183 186 189 188 188 187 188 185 186 186 184 186 183 175
165 188 216 201 197 185 194 196 196 194 192 191 180 184 184 182 183 184 188 190 182 174 174 172 173 174 176 176 179 185 190 190 188 185 186 192 194 191 190 188 190 186 181
147 175 183 181 176 173 179 177 184 191 190 184 184 184 181 177 178 179 178 171 162 158 160 164 167 167 170 176 179 179 176 178 180 182 182 183 188 188 188 191 193 186 183
Wind_Speed_850mb
37 29 26 28 35 37 42 53 54 50 52 53 55 56 57 60 60 61 63 58 59 66 70 78 93 72 63 58 54 52 52 43 26 26 32 36 40 38 29 26 19 20 17
33 27 27 28 33 43 49 56 54 50 53 61 59 59 61 59 59 62 65 65 64 69 78 86 92 85 69 60 52 58 56 47 42 38 35 38 44 41 32 25 22 23 14
29 26 29 35 44 47 51 53 54 49 52 61 66 67 65 60 56 60 63 65 68 69 73 93 90 93 78 72 66 62 59 52 46 42 34 40 47 46 38 32 27 28 17
33 35 42 46 48 52 53 55 58 58 59 60 64 68 72 70 67 60 63 64 70 73 72 79 92 105 90 78 69 66 60 55 49 42 37 39 46 46 39 32 31 28 18
43 49 55 59 66 66 64 65 64 65 65 68 69 66 69 70 67 65 64 70 73 75 76 78 90 85 91 77 70 65 59 60 50 48 40 43 44 48 44 35 27 23 21
60 66 71 75 76 75 73 71 73 72 71 71 72 68 67 73 68 62 70 74 75 74 80 81 80 80 83 73 61 57 52 59 50 51 42 46 47 47 39 32 29 24 18
77 82 84 86 86 83 78 74 75 75 78 78 79 71 70 75 76 61 70 73 75 78 84 83 77 92 86 71 59 56 49 39 33 34 39 48 45 44 38 39 33 24 19
70 71 76 77 78 75 71 72 75 76 82 86 81 75 70 75 74 69 63 67 73 83 85 81 79 89 85 74 70 62 54 46 38 31 24 31 33 31 28 28 30 30 24
67 64 60 61 62 56 64 71 75 82 85 82 79 75 71 75 73 66 61 63 69 88 88 75 96 100 93 79 69 72 63 58 49 42 37 31 32 28 32 36 33 27 21
62 62 59 54 52 60 66 75 83 87 90 79 80 73 74 73 70 63 61 64 71 89 84 80 90 90 83 77 78 79 71 66 61 56 50 43 35 33 33 29 27 27 22
67 65 61 63 77 82 87 93 92 88 81 77 76 70 70 66 64 65 60 65 78 99 97 93 97 99 97 76 82 75 70 67 63 59 52 45 42 43 43 36 34 24 23
73 70 72 75 72 73 74 81 75 67 70 74 66 64 65 64 62 59 52 62 84 98 87 87 87 83 80 83 79 72 64 62 65 63 55 52 51 49 46 34 35 29 24
80 95 94 72 64 61 66 67 61 59 63 63 59 61 59 58 53 47 35 43 76 103 101 96 95 83 83 82 76 65 63 63 68 64 56 54 51 52 46 40 34 26 26
77 75 71 68 62 67 70 68 60 65 68 61 59 61 61 68 56 48 42 45 61 61 109 91 88 89 84 78 70 63 65 66 65 61 57 55 57 54 48 43 41 36 33
74 77 74 74 73 65 67 70 68 69 71 63 60 59 65 69 75 57 45 50 56 81 108 101 98 97 91 83 75 74 73 70 67 62 63 62 60 58 53 47 42 36 39
70 68 65 63 63 59 62 65 65 70 71 63 63 62 67 73 72 57 34 41 69 104 117 102 103 101 95 93 88 81 75 72 67 66 64 62 57 56 55 46 40 36 39
60 63 60 62 62 59 57 56 57 51 53 58 67 66 66 75 63 60 43 53 75 103 110 118 110 108 103 97 93 86 78 71 74 68 63 58 56 54 56 46 41 38 37
50 53 52 53 52 52 52 51 55 49 41 54 62 59 63 64 63 63 45 62 82 94 107 114 119 111 104 100 90 82 72 76 76 70 61 59 54 60 49 45 42 41 39
49 52 51 48 47 48 43 44 48 43 39 44 48 47 59 51 58 64 58 65 101 107 119 120 109 100 99 95 91 90 88 81 74 69 63 61 53 53 49 43 41 40 40
44 45 47 44 41 37 41 39 34 38 43 42 47 47 50 48 52 72 85 96 108 113 117 116 108 107 102 96 91 91 80 81 75 70 65 59 55 49 46 46 42 44 39
29 34 33 34 34 34 35 35 33 37 38 43 39 43 41 39 58 84 84 102 105 104 103 101 99 91 90 89 88 83 79 82 75 69 60 58 60 50 47 44 43 40 39
19 24 30 36 37 37 36 36 36 38 40 41 39 43 43 37 55 77 81 94 96 96 94 93 91 93 91 87 85 84 78 72 73 72 62 60 58 48 49 49 48 41 45
13 15 22 26 32 38 37 37 40 40 44 41 40 47 47 49 67 76 79 92 94 96 95 92 90 83 76 72 71 72 75 76 72 72 67 64 58 51 55 54 52 46 46
12 16 21 22 26 31 37 40 40 38 39 38 41 45 48 50 55 62 70 78 80 81 81 80 76 71 67 65 65 65 69 69 67 66 62 60 57 57 55 51 51 45 41
10 13 18 22 27 27 31 31 35 32 32 36 50 53 52 51 51 57 63 67 74 80 78 80 73 60 59 64 66 62 58 56 62 63 58 55 57 59 55 53 54 49 41
14 13 21 26 33 27 27 28 29 32 37 47 51 57 58 50 49 54 57 64 73 75 73 70 69 71 67 66 64 60 59 59 55 54 54 53 55 58 55 51 55 51 46
Wind_Direction_850mb
236 246 265 279 291 294 296 300 302 296 279 270 267 267 267 266 263 258 256 253 246 248 245 235 226 231 231 231 239 243 237 232 209 223 222 222 216 213 221 230 245 244 266
234 250 267 278 280 286 292 295 298 293 284 277 274 271 269 268 267 260 254 257 253 246 245 242 234 231 232 233 234 237 234 231 223 229 222 216 210 209 219 223 234 228 227
243 259 265 274 283 291 294 290 290 293 295 283 275 271 271 271 265 260 254 251 255 254 246 241 239 232 232 228 228 228 227 228 224 230 224 211 209 206 212 212 220 226 226
257 259 269 277 286 290 291 289 286 287 293 296 283 271 269 270 267 258 250 248 256 255 253 240 240 236 231 227 226 225 223 222 217 222 217 212 205 205 208 211 211 219 215
274 271 274 279 284 286 284 281 282 282 288 298 293 275 265 265 265 258 249 247 253 258 250 240 243 236 226 226 227 223 217 214 215 214 205 196 194 200 204 200 194 202 214
276 276 280 282 283 286 282 277 273 278 284 295 291 280 266 262 266 261 251 250 257 251 247 239 240 219 222 220 226 229 226 216 217 204 205 196 199 202 195 195 191 187 198
282 281 280 281 281 280 279 275 267 273 283 290 290 281 267 260 264 265 255 248 254 250 246 238 236 223 222 212 213 211 215 219 229 229 224 204 202 202 203 196 197 189 192
280 278 278 278 278 275 270 263 264 274 284 288 287 279 266 258 258 263 267 246 247 250 246 243 240 209 205 198 196 201 202 199 193 188 196 205 196 193 195 198 199 197 205
272 273 275 273 269 261 259 263 271 279 286 285 282 276 265 256 257 261 262 245 242 246 243 245 230 215 194 193 196 196 193 190 180 173 174 177 185 190 193 186 194 182 178
272 272 271 263 259 262 266 271 275 280 283 280 276 270 266 257 255 257 253 242 240 238 235 238 220 196 189 193 196 195 191 187 182 177 183 182 186 178 180 186 189 181 178
272 269 265 265 272 274 275 276 279 278 276 272 271 268 262 256 254 250 245 238 234 234 231 227 209 200 196 201 194 195 196 189 183 184 186 185 177 173 176 185 185 182 176
266 265 270 272 268 266 267 269 270 264 266 265 266 264 253 258 244 245 253 231 235 233 213 207 193 189 193 190 190 194 194 191 184 185 183 178 174 175 181 186 177 183 184
266 268 271 265 260 261 264 262 258 257 255 258 258 255 253 246 231 230 230 221 225 223 214 203 193 192 182 184 189 188 186 189 186 180 177 173 173 178 179 174 164 163 157
270 269 268 260 257 260 262 258 253 252 252 251 252 247 247 228 224 227 225 217 217 235 215 202 195 174 180 180 182 183 188 189 186 178 171 169 176 173 170 167 159 152 147
269 269 264 259 263 263 260 255 254 252 249 250 248 237 237 233 224 227 227 221 225 221 215 186 173 172 175 176 176 179 182 182 182 175 172 170 165 162 163 164 158 147 142
272 270 266 262 260 258 257 258 257 260 257 247 235 238 244 247 228 217 229 234 219 208 186 176 170 175 174 175 175 177 180 179 175 172 166 161 158 159 160 160 154 148 141
268 268 267 264 262 260 256 254 256 257 254 238 232 239 239 246 228 217 242 225 215 203 190 173 172 175 176 177 179 179 174 173 175 168 164 162 161 161 162 159 155 151 145
268 268 268 266 263 259 254 251 252 254 240 236 240 241 234 238 230 218 224 217 193 195 177 173 174 177 176 179 179 173 166 174 173 170 167 165 164 167 165 163 161 158 156
261 264 265 263 262 255 249 248 253 242 234 247 249 241 221 230 233 220 216 201 177 171 174 175 175 176 180 183 180 178 178 173 172 171 171 172 170 170 170 169 168 165 165
260 254 250 252 263 249 237 235 236 232 244 242 241 213 208 220 214 197 185 177 174 174 174 172 172 181 182 183 180 181 175 175 174 175 177 177 176 176 175 173 173 175 172
268 251 247 246 242 231 226 226 227 245 236 245 234 214 207 206 191 179 180 177 179 177 175 174 177 183 184 183 183 177 177 178 180 180 180 181 183 178 179 179 177 176 174
288 249 230 229 223 220 224 223 233 236 231 234 226 200 197 191 179 180 184 184 181 179 178 180 181 183 185 182 182 181 179 177 180 183 182 180 180 176 179 179 179 175 178
265 222 202 216 221 220 222 224 221 218 223 229 211 184 181 176 179 184 185 186 185 183 180 179 181 184 184 184 183 184 185 184 185 186 185 183 179 177 180 181 182 182 178
212 189 208 217 220 216 215 216 218 213 211 208 188 184 178 179 179 185 190 190 185 181 180 178 176 179 181 182 181 183 186 189 188 188 187 188 185 186 186 184 186 183 175
165 188 216 201 197 185 194 196 196 194 192 191 180 184 184 182 183 184 188 190 182 174 174 172 173 174 176 176 179 185 190 190 188 185 186 192 194 191 190 188 190 186 181
147 175 183 181 176 173 179 177 184 191 190 184 184 184 181 177 178 179 178 171 162 158 160 164 167 167 170 176 179 179 176 178 180 182 182 183 188 188 188 191 193 186 183